STARLINK-5697, 55589

Orbit data source: Space-Track

STARLINK-5697, 55589 is a payload satellite owned by SpaceX/Seattle (US) in LEO that was launched on Sun, 12 Feb 2023 UTC via an FALCON 9 launch vehicle from the Air Force Eastern Test Range (AFETR). Payload-class satellites include a variety of spacecraft equipped with specific instruments for various scientific and technological missions. These include communications satellites like Starlink; space stations such as the ISS; scientific satellites like the Hubble; Earth observation satellites from companies like Planet Labs, Umbra, and HawkEye 360; GPS; miniature CubeSats for education and research; and military/defense satellites.

Loading next visibility...
Identifier
55589, 2023-020W
Orbit
LEO
Country
Flag of USUS
Related business
Manufacturer
SpaceX/Seattle
Mission
Operational Commercial Communications
Bus & Motor
STARLINK, Unknown motor
Mass
305 kg wet, ~290 kg dry
Launch date (UTC)
2023-02-12 (3 years ago)
Launch vehicle
FALCON 9
Launch site
Air Force Eastern Test Range (AFETR)
Object type
Payload
Rocket body
Debris
Shape & HBR
Box + 1 Pan, 10.1 m
Radar Cross Section
13.562 m², Large (>1 m²)

Expand to show TLE details & history
Last TLE update: 14 hours ago

TLE from 14 hours ago
0 STARLINK-5697
1 55589U 23020W   25340.57350227 -.00001152  00000-0 -70238-4 0  9999
2 55589  43.0018 150.4855 0001399 271.4471  88.6211 15.02533566154918
Epoch: 2025-12-06T13:45Z
TLE epoch observation values (Epoch: 2025-12-06T13:45:50.596Z)
Latitude
-0.00001°
Longitude
-131.57462°
Altitude
558.842 km
Speed
7.584 km/s
True Right ascension
10h 01m 56s
True Declination
0° 00' 00"
Sunlit
Object was in daylight at epoch
Visualization orbit readout
Latitude
Unknown
Longitude
Unknown
Altitude
Unknown
Speed
Unknown
Apparent Right ascension
Unknown
Apparent Declination
Unknown
Sunlit
N/A
Visualization observer readout
Local Sidereal Time
02:09:40
Azimuth
Unknown
Elevation
Unknown
Doppler factor
Unknown
Orbital elements
Apogee altitude
561.981 km
Perigee altitude
560.04 km
Semi-major axis
6,939.148 km
Eccentricity
0.00014
Inclination
43.0018°
RAAN
150.4855°
Arg. of periapsis
271.4471°
True anomaly
88.63713°
Mean anomaly
88.6211°
Eccentric anomaly
88.62911°
Mean motion
3.75478 °/min
Orbital period
95.88 mins
BSTAR
-0.000070238
Loading maneuver chart data...
Computing Atmospheric mass density...
Loading historical data...
Loading historical data...
Loading historical data...
Loading historical data...
Loading historical data...
Loading historical data...
Loading historical data...

Documentation

Showing up to 5 results
|